Weather History for Mount Airy, NC

Change the Weather History Date:

Wednesday, January 23, 2013

  Actual Average (KINT) Record (KINT)
Temperature  
Mean Temperature 30 °F -  
Max Temperature 44 °F 45 °F 72 °F (1967)
Min Temperature 17 °F 28 °F -2 °F (1970)
Degree Days  
Heating Degree Days 34    
Moisture  
Dew Point 3 °F    
Average Humidity 35    
Maximum Humidity 53    
Minimum Humidity 20    
Precipitation  
Precipitation 0.00 in - - ()
Sea Level Pressure  
Sea Level Pressure 30.17 in    
Wind  
Wind Speed 2 mph (NW)    
Max Wind Speed 9 mph    
Max Gust Speed -    
Visibility 10 miles    
Events      
Averages and records for this station are not official NWS values.
T = Trace of Precipitation, MM = Missing Value Source: NWS Daily Summary

Daily Weather History Graph

Daily Weather History Graph

Search for Another Location

Airport:

Trip Planner

Search our weather history database for the weather conditions in past years. The results will help you decide how hot, cold, wet, or windy it might be!

Date:

Astronomy

Jan. 23, 2013 Rise Set
Actual Time 7:29 AM EST 5:39 PM EST
Civil Twilight 7:02 AM EST 6:06 PM EST
Nautical Twilight 6:30 AM EST 6:37 PM EST
Astronomical Twilight 6:00 AM EST 7:08 PM EST
Moon 2:49 PM EST (1/23) 4:38 AM EST (1/23)
Length of Visible Light 11h 04m
Length of Day
10h 09m
Waxing Gibbous, 89% of the Moon is Illuminated
Jan 23
Waxing Gibbous
Jan 26
Full
Feb 3
Last Quarter
Feb 10
New
Feb 17
First Quarter

Hourly Weather History & Observations

Time (EST) Temp. Windchill Dew Point Humidity Pressure Visibility Wind Dir Wind Speed Gust Speed Precip Events Conditions
12:15 AM 17.4 °F - -17.0 °F 21% 30.21 in 10.0 mi Calm Calm - N/A   Clear
12:35 AM 17.6 °F - -17.1 °F 21% 30.20 in 10.0 mi Calm Calm - N/A   Clear
1:15 AM 17.2 °F - -17.9 °F 20% 30.21 in 10.0 mi Calm Calm - N/A   Clear
1:35 AM 18.3 °F 13.1 °F -15.0 °F 22% 30.22 in 10.0 mi North 3.5 mph - N/A   Clear
1:55 AM 19.8 °F 14.7 °F -9.0 °F 28% 30.22 in 10.0 mi North 3.5 mph - N/A   Clear
2:15 AM 20.5 °F 14.0 °F -6.9 °F 30% 30.23 in 10.0 mi North 4.6 mph - N/A   Clear
2:35 AM 20.7 °F 14.2 °F -5.6 °F 31% 30.23 in 10.0 mi North 4.6 mph - N/A   Clear
2:55 AM 20.7 °F 15.8 °F -4.7 °F 33% 30.24 in 10.0 mi North 3.5 mph - N/A   Clear
3:15 AM 20.8 °F 16.0 °F -2.7 °F 36% 30.24 in 10.0 mi North 3.5 mph - N/A   Clear
3:35 AM 20.8 °F - -3.6 °F 34% 30.24 in 10.0 mi Calm Calm - N/A   Clear
3:55 AM 20.3 °F - -3.3 °F 35% 30.24 in 10.0 mi Calm Calm - N/A   Clear
4:15 AM 20.1 °F - -4.5 °F 34% 30.24 in 10.0 mi Calm Calm - N/A   Scattered Clouds
4:35 AM 19.9 °F 14.9 °F -4.7 °F 34% 30.24 in 10.0 mi North 3.5 mph - N/A   Mostly Cloudy
4:55 AM 19.9 °F 14.9 °F -4.0 °F 35% 30.24 in 10.0 mi North 3.5 mph - N/A   Mostly Cloudy
5:15 AM 19.8 °F - -3.1 °F 37% 30.24 in 10.0 mi Calm Calm - N/A   Mostly Cloudy
5:35 AM 20.1 °F - -2.2 °F 38% 30.24 in 10.0 mi Calm Calm - N/A   Mostly Cloudy
5:55 AM 19.9 °F 14.9 °F -1.7 °F 39% 30.25 in 10.0 mi North 3.5 mph - N/A   Scattered Clouds
6:15 AM 20.1 °F 15.2 °F -0.6 °F 40% 30.25 in 10.0 mi North 3.5 mph - N/A   Clear
6:35 AM 19.9 °F 14.9 °F -1.5 °F 39% 30.25 in 10.0 mi North 3.5 mph - N/A   Clear
6:55 AM 19.4 °F 12.8 °F -1.5 °F 40% 30.25 in 10.0 mi North 4.6 mph - N/A   Clear
7:15 AM 19.9 °F 13.4 °F -0.9 °F 40% 30.27 in 10.0 mi North 4.6 mph - N/A   Clear
7:35 AM 19.6 °F - -1.5 °F 40% 30.27 in 10.0 mi Calm Calm - N/A   Clear
7:55 AM 19.8 °F - -1.3 °F 40% 30.27 in 10.0 mi Calm Calm - N/A   Clear
8:15 AM 23.4 °F - 2.5 °F 41% 30.27 in 10.0 mi Calm Calm - N/A   Clear
8:35 AM 25.9 °F - 3.0 °F 38% 30.27 in 10.0 mi Calm Calm - N/A   Clear
8:55 AM 27.5 °F 23.6 °F 3.7 °F 36% 30.27 in 10.0 mi NW 3.5 mph - N/A   Clear
9:15 AM 30.0 °F - 3.4 °F 32% 30.28 in 10.0 mi Calm Calm - N/A   Scattered Clouds
9:35 AM 31.5 °F 28.1 °F 5.7 °F 34% 30.28 in 10.0 mi NW 3.5 mph - N/A   Overcast
10:15 AM 33.3 °F 30.2 °F 5.4 °F 31% 30.29 in 10.0 mi WNW 3.5 mph - N/A   Overcast
10:35 AM 32.7 °F 29.6 °F 5.0 °F 31% 30.29 in 10.0 mi West 3.5 mph - N/A   Overcast
10:55 AM 34.3 °F 30.2 °F 6.6 °F 31% 30.28 in 10.0 mi West 4.6 mph - N/A   Overcast
11:15 AM 34.3 °F 28.4 °F 4.8 °F 29% 30.27 in 10.0 mi West 6.9 mph - N/A   Mostly Cloudy
11:55 AM 38.8 °F 35.4 °F 7.2 °F 27% 30.24 in 10.0 mi NW 4.6 mph - N/A   Overcast
12:15 PM 37.8 °F 34.2 °F 7.7 °F 29% 30.22 in 10.0 mi West 4.6 mph - N/A   Mostly Cloudy
12:35 PM 40.8 °F 35.0 °F 10.6 °F 29% 30.21 in 10.0 mi West 9.2 mph - N/A   Mostly Cloudy
12:55 PM 40.3 °F 36.3 °F 6.4 °F 25% 30.19 in 10.0 mi SW 5.8 mph - N/A   Overcast
1:15 PM 38.1 °F 32.9 °F 6.6 °F 27% 30.18 in 10.0 mi WSW 6.9 mph - N/A   Overcast
1:35 PM 38.3 °F 33.2 °F 9.3 °F 30% 30.17 in 10.0 mi West 6.9 mph - N/A   Overcast
1:55 PM 38.7 °F 35.2 °F 10.0 °F 31% 30.17 in 10.0 mi West 4.6 mph - N/A   Overcast
2:15 PM 38.7 °F 36.3 °F 10.0 °F 31% 30.15 in 10.0 mi West 3.5 mph - N/A   Overcast
2:35 PM 40.8 °F 38.8 °F 12.2 °F 31% 30.15 in 10.0 mi WSW 3.5 mph - N/A   Overcast
2:55 PM 44.4 °F 42.0 °F 12.6 °F 28% 30.13 in 10.0 mi WNW 4.6 mph - N/A   Overcast
3:15 PM 41.9 °F 40.0 °F 10.8 °F 28% 30.13 in 10.0 mi WNW 3.5 mph - N/A   Overcast
3:35 PM 41.7 °F 37.3 °F 12.0 °F 30% 30.13 in 10.0 mi NW 6.9 mph - N/A   Mostly Cloudy
3:55 PM 41.9 °F 37.5 °F 12.4 °F 30% 30.12 in 10.0 mi North 6.9 mph - N/A   Scattered Clouds
4:15 PM 42.3 °F 38.6 °F 11.8 °F 29% 30.12 in 10.0 mi North 5.8 mph - N/A   Scattered Clouds
4:35 PM 41.5 °F 37.8 °F 10.6 °F 28% 30.12 in 10.0 mi NNE 5.8 mph - N/A   Clear
4:55 PM 41.0 °F 39.0 °F 11.3 °F 30% 30.12 in 10.0 mi North 3.5 mph - N/A   Clear
5:15 PM 40.1 °F - 9.7 °F 29% 30.11 in 10.0 mi Calm Calm - N/A   Clear
5:35 PM 37.0 °F - 6.1 °F 28% 30.11 in 10.0 mi Calm Calm - N/A   Clear
5:55 PM 34.9 °F - 4.1 °F 27% 30.10 in 10.0 mi Calm Calm - N/A   Clear
6:15 PM 32.0 °F - 1.8 °F 28% 30.10 in 10.0 mi Calm Calm - N/A   Clear
6:35 PM 30.9 °F - 0.3 °F 27% 30.10 in 10.0 mi Calm Calm - N/A   Clear
7:15 PM 30.2 °F - 3.4 °F 32% 30.09 in 10.0 mi Calm Calm - N/A   Clear
7:35 PM 30.2 °F - 7.7 °F 39% 30.09 in 10.0 mi Calm Calm - N/A   Clear
7:55 PM 31.1 °F - 15.1 °F 52% 30.08 in 10.0 mi Calm Calm - N/A   Clear
8:15 PM 30.4 °F - 8.1 °F 39% 30.07 in 10.0 mi Calm Calm - N/A   Clear
8:35 PM 28.9 °F - 12.0 °F 49% 30.07 in 10.0 mi Calm Calm - N/A   Clear
8:55 PM 29.1 °F - 7.5 °F 40% 30.07 in 10.0 mi Calm Calm - N/A   Clear
9:35 PM 27.3 °F - 8.8 °F 46% 30.05 in 10.0 mi Calm Calm - N/A   Clear
9:55 PM 27.3 °F - 10.6 °F 49% 30.05 in 10.0 mi Calm Calm - N/A   Clear
10:15 PM 26.6 °F - 10.9 °F 52% 30.03 in 10.0 mi Calm Calm - N/A   Clear
10:35 PM 26.4 °F - 11.5 °F 53% 30.02 in 10.0 mi Calm Calm - N/A   Clear
10:55 PM 26.4 °F - 8.6 °F 47% 30.01 in 10.0 mi Calm Calm - N/A   Clear
11:15 PM 26.6 °F - 10.4 °F 51% 30.00 in 10.0 mi Calm Calm - N/A   Clear
11:35 PM 26.4 °F - 10.8 °F 52% 30.00 in 10.0 mi Calm Calm - N/A   Clear
11:55 PM 25.2 °F - 8.6 °F 50% 29.98 in 10.0 mi Calm Calm - N/A   Clear